Location: Rounton
(54.4000°N, 1.3500°W)
Time: 03:25:57
(UTC+00:00)

SR - Pass Details

Date: 02 December 2021
Orbit: 582 x 872 km, 66.7° (Epoch: 26 January)

Event Time Altitude Azimuth Distance (km) Brightness Sun altitude
Exits shadow 06:30:00 12° 331° (NNW) 1,787 ? -12.8°
Maximum altitude 06:33:23 30° 31° (NNE) 1,082 ? -12.4°
Drops below altitude 10° 06:37:13 10° 93° (E) 1,949 ? -11.8°
Sets 06:39:45 0° 104° (ESE) 2,881 ? -11.5°
